Location: Newark
(20.4406°S, 50.8231°W)
Time: 12:10:17
(UTC+00:00)

OTV 5 (USA 277) - Visible Passes

Search period start: 22 September 2019 00:00
Search period end: 02 October 2019 00:00
Orbit: 295 x 339 km, 54.5° (Epoch: 08 September)

Date Brightness Start Highest point End Pass type
(mag) Time Alt. Az. Time Alt. Az. Time Alt. Az.
22 Sep ? 08:51:41 10° SW 08:54:31 57° NW 08:57:19 10° NNE visible
22 Sep ? 21:55:49 10° NNE 21:57:39 18° ENE 21:58:19 16° ENE visible
23 Sep ? 07:33:47 13° SSE 07:34:46 15° SE 07:36:34 10° E visible
23 Sep ? 22:09:31 10° NW 22:12:04 84° WSW 22:14:09 15° SE visible
24 Sep ? 07:49:26 59° ESE 07:49:26 59° ESE 07:52:11 10° NE visible
24 Sep ? 22:24:49 10° W 22:26:38 17° SW 22:28:29 10° S visible
25 Sep ? 08:05:16 17° NNW 08:05:16 17° NNW 08:06:17 10° N visible
